Location: Staunton
(38.1490°N, 79.0720°W)
Time: 19:30:04
(UTC-04:00)

ISS - Pass Details

Date: 06 August 2020
Orbit: 418 x 420 km, 51.6° (Epoch: 15 August)

Event Time Altitude Azimuth Distance (km) Brightness Sun altitude
Rises 21:27:25 0° 288° (WNW) 2,364 1.7 -12.6°
Reaches altitude 10° 21:30:45 10° 252° (WSW) 1,495 -0.4 -13.2°
Maximum altitude 21:31:52 11° 233° (SW) 1,415 -0.8 -13.4°
Drops below altitude 10° 21:33:00 10° 213° (SSW) 1,492 -1.0 -13.6°
Enters shadow 21:34:49 - 189° (S) 1,889 -0.7 -13.9°
